Hourly Data Report for October 31, 2013

All times are specified in Local Standard Time (LST). Add 1 hour to adjust for Daylight Saving Time where and when it is observed.

GJOA HAVEN A
NUNAVUT

68°38'08.000" N
95°51'01.000" W
46.90 m
2302337
71597
YHK

Download Data

Hourly Data (October 2013)
Hourly Data Report for October 31, 2013
Temp Definition
°C
Dew Point Temp Definition
°C
Rel Hum Definition
%
Wind Dir Definition
10's deg

Wind Spd Definition
km/h
Visibility Definition
km
Stn Press Definition
kPa
Hmdx Definition


Wind Chill Definition


Weather Definition


TIME
00:00 Legend Double Dagger -17.2 -18.9 87 10 28 16.1 100.11   -29 LegendNANA
01:00 Legend Double Dagger -17.3 -18.9 88 9 28 16.1 100.13   -29 LegendNANA
02:00 Legend Double Dagger -17.0 -18.5 88 10 24 16.1 100.19   -28 LegendNANA
03:00 Legend Double Dagger -16.6 -18.0 89 10 22 16.1 100.21   -27 LegendNANA
04:00 Legend Double Dagger -15.5 -16.9 89 10 18 16.1 100.26   -24 LegendNANA
05:00 Legend Double Dagger -14.6 -15.9 90 10 22 16.1 100.30   -24 LegendNANA
06:00 Legend Double Dagger -14.0 -15.4 89 10 21 16.1 100.35   -23 LegendNANA
07:00 Legend Double Dagger -13.5 -15.1 88 10 21 16.1 100.38   -22 LegendNANA
08:00 Legend Double Dagger -13.3 -15.0 87 10 18 16.1 100.40   -22 LegendNANA
09:00 Legend Double Dagger -13.3 -15.2 86 10 21 16.1 100.45   -22 LegendNANA
10:00 Legend Double Dagger -13.9 -15.9 85 8 22 16.1 100.46   -23 LegendNANA
11:00 Legend Double Dagger -13.7 -15.9 84 8 24 16.1 100.49   -23 LegendNANA
12:00 Legend Double Dagger -14.2 -16.2 85 10 24 16.1 100.52   -24 LegendNANA
13:00 Legend Double Dagger -13.6 -16.0 82 12 24 16.1 100.57   -23 LegendNANA
14:00 Legend Double Dagger -14.0 -15.7 87 10 24 16.1 100.62   -24 LegendNANA
15:00 Legend Double Dagger -14.0 -15.3 90 11 24 16.1 100.69   -24 LegendNANA
16:00 Legend Double Dagger -14.0 -15.3 90 12 22 16.1 100.73   -23 LegendNANA
17:00 Legend Double Dagger -13.6 -14.9 90 13 18 16.1 100.75   -22 LegendNANA
18:00 Legend Double Dagger -13.9 -15.5 88 13 26 16.1 100.74   -24 LegendNANA
19:00 Legend Double Dagger -13.9 -15.4 89 12 24 16.1 100.78   -24 LegendNANA
20:00 Legend Double Dagger -14.4 -15.9 88 13 21 16.1 100.81   -24 LegendNANA
21:00 Legend Double Dagger -13.9 -15.3 89 14 18 16.1 100.83   -22 LegendNANA
22:00 Legend Double Dagger -14.0 -15.6 88 15 17 16.1 100.87   -22 LegendNANA
23:00 Legend Double Dagger -14.1 -15.7 88 16 21 16.1 100.90   -23 LegendNANA

Notes on Data Quality.

Legend

  • E = Estimated
  • M = Missing
  • NA = Not Available
  • ‡ = Partner data that is not subject to review by the National Climate Archives
Date modified: